Location: Marcé
(47.5801°N, 0.3280°W)
Time: 20:01:53
(UTC+01:00)

Explorer 7 - Pass Details

Date: 04 December 2021
Orbit: 483 x 674 km, 50.3° (Epoch: 17 January)

Event Time Altitude Azimuth Distance (km) Brightness Sun altitude
Rises 07:50:20 0° 250° (WSW) 2,802 10.0 -7.0°
Reaches altitude 10° 07:52:40 10° 251° (WSW) 1,870 9.1 -6.6°
Maximum altitude 07:56:55 87° 337° (NNW) 550 6.8 -6.0°
Drops below altitude 10° 08:00:56 10° 71° (ENE) 1,761 10.1 -5.4°
Sets 08:03:05 0° 71° (ENE) 2,624 11.0 -5.1°
